Regional Weather Roundup
Issued by NWS

Home | Current Version | Previous Version | Graphics & Text | Print | Product List | Glossary Off
Versions: 1 2 3 4 5 6 7 8 9 10 11 12 13 14 15 16 17 18 19 20 21 22 23 24 25 26 27 28 29 30 31 32 33 34 35 36 37 38 39 40 41 42 43 44 45 46 47 48 49 50

000
ASUS43 KTOP 281508
RWRKS

WEATHER ROUNDUP FOR KANSAS
NATIONAL WEATHER SERVICE GOODLAND KS
1000 AM CDT THU AUG 28 2014

NOTE:  "FAIR" INDICATES FEW OR NO CLOUDS BELOW 12,000 FEET WITH NO
SIGNIFICANT WEATHER AND/OR OBSTRUCTIONS TO VISIBILITY.

KSZ001>006-013>018-027>032-041>047-281600-
NORTHWEST KANSAS

CITY           SKY/WX    TMP DP  RH WIND       PRES   REMARKS
GOODLAND       SUNNY     69  60  73 NW12      30.03F
HAYS           PTSUNNY   75  64  69 S15G21    29.90F
HILL CITY      CLOUDY    66  64  93 NW14      29.95R
RUSSELL        PTSUNNY   78  66  66 S21G35    29.88F
$$

KSZ061>065-074>080-084>089-281600-
SOUTHWEST KANSAS

CITY           SKY/WX    TMP DP  RH WIND       PRES   REMARKS
DODGE CITY     PTSUNNY   72  63  73 SW12      29.93S
ELKHART          N/A     68  55  63 NW12        N/A
GARDEN CITY    MOSUNNY   71  65  81 NW14      29.96R
GREAT BEND     PTSUNNY   81  64  57 S24G31    29.91F
LIBERAL        CLOUDY    70  61  73 W16       29.99R
PRATT          PTSUNNY   77  63  61 S20       29.95S
$$

KSZ066>073-081>083-090>101-281600-
SOUTHEAST KANSAS

CITY           SKY/WX    TMP DP  RH WIND       PRES   REMARKS
CHANUTE        SUNNY     83  67  58 S13       30.00S
COFFEYVILLE    SUNNY     83  68  60 S13       29.99S
HUTCHINSON     CLOUDY    72  67  84 S14       29.97R
MEDICINE LODGE   N/A     73  68  84 SE10G20   29.94F
NEWTON         CLOUDY    77  64  65 SW9       30.00F
PARSONS        SUNNY     84  68  58 SW10      30.01S
WICHITA INTL   CLOUDY    78  65  63 S9        29.97S
WICHITA JABRA  PTSUNNY   80  65  59 S10       29.97S
WICHITA MCCONL PTSUNNY   79  66  63 S10       29.98S
WINFIELD       MOSUNNY   84  65  52 S10       29.98F
$$

KSZ007>012-019>026-033>040-048>060-102>105-281600-
NORTHEAST KANSAS

CITY           SKY/WX    TMP DP  RH WIND       PRES   REMARKS
CONCORDIA      MOSUNNY   75  69  81 SE14G23   29.92S
EMPORIA        MOSUNNY   83  68  60 S12       29.98S
LAWRENCE       MOSUNNY   84  70  62 SW5       29.97S
MANHATTAN      CLOUDY    75  70  84 W5        29.96R
MARYSVILLE     RAIN      72  70  94 SE8       29.95F
OLATHE IND     MOSUNNY   82  70  66 SW10      29.99S
OLATHE EXE     PTSUNNY   78  71  79 SW8       29.99S
SALINA         LGT RAIN  75  70  84 SE8       29.94F
TOPEKA BILLARD MOSUNNY   85  70  60 SW5       29.97S
TOPEKA FORBES  SUNNY     85  67  54 SW13      29.97S
$$


USA.gov is the U.S. government's official web portal to all federal, state and local government web resources and services.